EW0349 Weather Reports


Display with metric or nautical units.
time (UTC)temp
F
wind
direction
speed
MPH
gust
MPH
rain 1hr
in
rain 24hr
in
rain mn
in
humidity
%
barometer
mb
20260904143016 52 178 0.0 0.0 0.02 0.49 0.13 100 1011.3
20260904141508 52 178 0.0 0.0 0.01 0.48 0.12 100 1011.2
20260904140003 52 178 0.0 0.0 0.01 0.57 0.12 100 1011.0
20260904134603 51 178 0.0 1.0 0.01 0.57 0.12 100 1010.7
20260904133101 51 178 0.0 0.0 0.00 0.56 0.11 100 1010.5
20260904131550 51 178 0.0 1.0 0.00 0.56 0.11 100 1010.4
20260904130045 51 178 0.0 1.0 0.00 0.57 0.11 100 1010.3
20260904124542 51 178 0.0 0.0 0.00 0.57 0.11 100 1010.2
20260904123036 51 178 0.0 1.0 0.00 0.57 0.11 100 1010.3
20260904121533 51 178 0.0 0.0 0.00 0.57 0.11 100 1010.2
20260904120041 51 178 0.0 0.0 0.00 0.57 0.11 100 1010.1
20260904114524 51 178 0.0 0.0 0.00 0.57 0.11 100 1009.9
20260904113021 51 178 0.0 0.0 0.00 0.57 0.11 100 1009.8
20260904111515 51 178 0.0 1.0 0.00 0.57 0.11 100 1009.8
20260904110014 51 178 0.0 1.0 0.01 0.57 0.11 100 1009.7
20260904104506 51 178 0.0 1.0 0.02 0.57 0.11 100 1009.7
20260904103002 51 178 0.0 0.0 0.03 0.57 0.11 100 1009.6
20260904101557 51 178 0.0 0.0 0.03 0.57 0.11 100 1009.5
20260904100112 51 178 0.0 0.0 0.02 0.56 0.10 100 1009.6
20260904094558 51 178 0.0 1.0 0.02 0.56 0.09 100 1009.6
20260904093044 51 178 0.0 1.0 0.03 0.55 0.08 100 1009.6
20260904091541 51 178 0.0 2.0 0.04 0.55 0.08 100 1009.6
20260904090035 51 178 0.0 1.0 0.06 0.55 0.08 100 1009.8
20260904084532 51 178 0.0 0.0 0.07 0.54 0.07 100 1009.8
20260904083028 51 178 0.0 0.0 0.05 0.52 0.05 100 1009.7
20260904081523 51 178 0.0 0.0 0.04 0.51 0.04 100 1009.5
20260904080020 51 178 0.0 0.0 0.02 0.49 0.02 100 1009.7
20260904074514 51 178 0.0 0.0 0.00 0.47 0.00 100 1009.8
20260904073010 51 178 0.0 0.0 0.01 0.47 0.00 100 1009.7
20260904071505 51 178 0.0 0.0 0.01 0.47 0.00 100 1009.6
20260904070101 51 178 0.0 0.0 0.01 0.47 0.47 100 1009.5
20260904064605 51 178 0.0 0.0 0.01 0.47 0.47 100 1009.6
20260904063052 51 178 0.0 0.0 0.00 0.46 0.46 100 1009.5
20260904061547 51 178 0.0 1.0 0.00 0.46 0.46 100 1009.4
20260904060110 51 178 0.0 0.0 0.00 0.46 0.46 100 1009.4
20260904054540 52 178 0.0 1.0 0.00 0.46 0.46 100 1009.5
20260904053112 52 178 0.0 0.0 0.00 0.46 0.46 100 1009.5
20260904051536 52 178 0.0 0.0 0.00 0.46 0.46 100 1009.6
20260904050032 52 178 0.0 1.0 0.00 0.46 0.46 100 1009.7
20260904044522 52 178 0.0 1.0 0.00 0.46 0.46 100 1009.6
20260904043017 52 178 0.0 1.0 0.00 0.46 0.46 100 1009.5
20260904041512 52 178 0.0 2.0 0.00 0.46 0.46 100 1009.4
20260904040008 52 176 0.0 2.0 0.00 0.46 0.46 100 1009.6
20260904034504 52 204 0.0 1.0 0.01 0.46 0.46 100 1009.5
20260904033107 52 203 0.0 0.0 0.02 0.46 0.46 100 1009.3
20260904031556 52 203 0.0 0.0 0.04 0.46 0.46 100 1009.3
20260904030051 53 203 0.0 3.0 0.07 0.46 0.46 100 1009.4
20260904024549 53 236 0.0 4.0 0.06 0.45 0.45 100 1009.5
20260904023052 53 155 1.0 5.0 0.06 0.44 0.44 100 1009.6
20260904021537 54 178 0.0 3.0 0.05 0.42 0.42 100 1009.4
20260904020038 54 178 0.0 1.0 0.02 0.40 0.39 100 1009.4
20260904014529 54 178 0.0 2.0 0.02 0.40 0.39 100 1009.3
20260904013024 54 178 0.0 1.0 0.02 0.39 0.38 100 1009.2
20260904011521 54 178 0.0 3.0 0.02 0.38 0.37 100 1009.3
20260904010015 55 178 0.0 1.0 0.02 0.39 0.37 100 1009.3
20260904004511 55 178 0.0 6.0 0.05 0.39 0.37 100 1009.2
20260904003006 55 176 0.0 7.0 0.04 0.38 0.36 100 1009.3
20260904001502 55 173 0.0 3.0 0.04 0.37 0.35 100 1009.4
20260904000114 55 210 0.0 0.0 0.04 0.46 0.35 100 1009.5
20260903234553 55 210 0.0 2.0 0.02 0.43 0.32 100 1009.5
20260903233112 55 210 0.0 2.0 0.06 0.43 0.32 100 1009.4
20260903231547 54 161 0.0 2.0 0.06 0.42 0.31 100 1009.5
20260903224543 53 159 0.0 3.0 0.06 0.47 0.30 100 1009.6
20260903223048 54 232 1.0 4.0 0.03 0.43 0.26 100 1009.7
20260903221528 53 202 0.0 4.0 0.07 0.42 0.25 100 1009.7
20260903220023 52 199 0.0 2.0 0.07 0.43 0.25 100 1009.7
20260903214519 52 195 0.0 2.0 0.06 0.42 0.24 2 1009.9
20260903213025 53 188 1.0 7.0 0.05 0.41 0.23 22 1010.1
20260903211510 54 188 2.0 7.0 0.00 0.36 0.18 32 1010.1
20260903210006 55 176 0.0 4.0 0.00 0.37 0.18 37 1009.8
20260903204502 56 285 1.0 7.0 0.00 0.37 0.18 34 1009.7
20260903203057 57 336 4.0 7.0 0.00 0.37 0.18 22 1009.9
20260903201552 57 288 2.0 6.0 0.00 0.37 0.18 11 1009.8
20260903200048 56 190 1.0 5.0 0.00 0.39 0.18 4 1009.9
20260903194548 55 144 0.0 8.0 0.00 0.39 0.18 4 1010.0
20260903193044 55 257 1.0 14.0 0.01 0.39 0.18 8 1010.1
20260903191535 56 190 1.0 12.0 0.01 0.39 0.18 8 1010.1
20260903190032 56 16 2.0 7.0 0.01 0.49 0.18 4 1010.1
20260903184527 56 313 2.0 6.0 0.03 0.49 0.18 100 1010.0
20260903183022 55 203 0.0 7.0 0.03 0.48 0.17 100 1009.9
20260903181517 55 242 0.0 6.0 0.04 0.48 0.17 100 1010.1
20260903180012 55 194 1.0 8.0 0.06 0.53 0.17 100 1010.1
20260903174508 55 164 0.0 7.0 0.04 0.51 0.15 100 1010.1
20260903173004 55 182 0.0 6.0 0.03 0.50 0.14 100 1010.0
20260903171612 55 227 0.0 6.0 0.02 0.49 0.13 1 1010.2
20260903170104 55 152 0.0 6.0 0.00 0.52 0.11 9 1010.2
20260903164551 55 194 2.0 8.0 0.00 0.52 0.11 4 1010.0
20260903163046 55 206 1.0 7.0 0.00 0.52 0.11 100 1010.1
20260903161541 54 227 1.0 9.0 0.00 0.52 0.11 100 1010.2
20260903160044 54 314 1.0 7.0 0.00 0.52 0.11 100 1010.1
20260903154533 54 211 2.0 10.0 0.00 0.52 0.11 100 1010.2
20260903153029 53 207 1.0 7.0 0.00 0.52 0.11 100 1010.1
20260903151524 53 207 2.0 7.0 0.00 0.52 0.11 100 1010.0
20260903150019 52 207 1.0 8.0 0.00 0.52 0.11 100 1009.9
20260903144529 52 143 1.0 7.0 0.01 0.52 0.11 100 1009.9